Wind_Speed
36 35 35 35 35 35 33 32 35 39 38 36 36 37 37 37 38 39 39 38 37 36 35 33 31 30 30 30 30 29 29 30 29 27 32 35 31 26 26 23 20 21 19 17 18 17 16 15 12 9 8 6 4 4 5 4 5 4 3 2 2 2 3 4 6 6 3 0 5 11 13 10 5 9 9 5 8 8 8 12 12 12 13 10 7 6 5 6
37 36 35 35 34 35 35 33 33 37 39 37 36 36 37 38 37 38 38 38 38 37 36 34 31 30 30 29 30 28 28 30 29 32 38 37 31 29 27 23 20 21 21 19 18 18 18 17 14 10 8 6 3 4 5 4 5 3 2 2 3 3 4 4 7 8 3 2 5 11 12 11 7 9 12 5 5 8 6 10 14 14 14 14 12 10 9 8
37 36 35 35 34 34 36 34 32 35 38 39 37 36 37 38 38 37 38 38 38 36 36 36 33 30 29 30 30 27 27 27 30 37 41 37 33 31 27 23 21 21 22 21 18 19 17 18 16 11 8 6 4 4 4 4 4 2 3 2 4 5 3 3 8 10 3 2 3 8 10 10 7 9 12 7 5 6 8 10 13 16 16 14 14 13 12 11
36 36 37 36 34 35 36 35 33 32 36 40 39 37 37 38 38 38 38 38 37 36 36 37 35 31 30 30 28 27 26 22 31 44 42 38 36 31 29 24 22 21 23 22 19 19 17 16 16 12 9 5 4 4 4 4 4 3 4 3 2 4 2 2 6 7 3 2 1 6 7 7 8 10 12 9 5 4 12 16 15 15 13 11 13 13 14 13
36 36 37 36 35 35 36 37 34 32 34 39 41 39 37 38 38 38 38 37 36 35 35 37 36 32 30 30 29 29 25 12 23 43 43 39 37 33 30 26 23 23 24 23 21 20 18 15 15 14 8 4 5 4 3 5 5 3 3 3 2 5 2 2 4 4 4 2 2 6 6 5 8 10 14 13 7 7 12 13 12 11 10 10 12 12 14 15
36 37 37 37 36 35 36 38 36 33 33 36 39 41 38 37 38 38 38 37 35 34 33 35 36 33 30 31 31 32 30 10 6 26 42 40 37 36 31 27 24 23 24 24 23 22 19 16 14 14 9 4 5 4 3 6 6 3 2 2 3 4 2 0 2 1 3 2 2 5 5 6 9 7 13 17 15 15 12 8 8 8 7 10 13 14 15 16
36 37 38 37 37 35 36 38 37 34 33 34 37 41 39 37 38 38 38 37 35 35 34 34 36 34 30 30 33 35 37 24 2 9 34 39 37 37 32 29 26 25 26 26 26 24 21 18 15 14 10 4 4 5 4 6 7 3 2 3 3 4 3 2 2 1 1 2 3 4 4 7 10 7 8 17 23 20 15 12 11 9 9 10 13 17 17 15
35 37 38 38 38 36 36 38 38 35 34 35 36 39 40 38 38 38 37 37 37 37 34 33 34 35 31 32 36 34 39 39 16 3 18 33 37 37 34 31 29 26 27 28 27 28 24 21 18 14 8 4 5 7 6 5 3 4 4 3 3 3 3 3 5 5 3 4 5 4 6 7 10 8 5 16 22 18 18 18 16 15 13 13 13 17 17 16
35 36 38 38 38 37 36 37 38 36 35 34 34 39 42 39 37 38 37 37 38 37 37 34 35 36 33 36 35 27 35 45 30 8 8 27 36 37 37 33 31 29 27 28 26 27 26 22 21 16 9 8 9 7 8 6 2 6 9 5 4 4 2 3 5 5 5 5 5 5 7 7 8 7 7 17 19 16 17 18 18 17 16 15 15 16 18 18
35 36 37 38 38 38 36 36 37 36 35 33 34 39 42 41 38 38 38 37 38 38 38 35 34 35 34 40 32 16 29 42 36 20 9 23 36 37 39 36 33 31 28 28 26 27 27 24 24 20 10 9 10 6 7 7 4 6 7 5 6 7 7 7 6 5 4 5 6 7 7 7 7 5 6 11 12 13 16 17 18 17 17 17 16 16 18 19
35 36 37 37 38 39 37 36 37 37 36 34 35 38 40 41 38 38 38 36 37 38 39 35 32 34 35 40 33 18 24 34 37 30 11 16 34 39 40 38 34 33 30 30 29 28 27 24 25 21 8 6 9 6 6 7 6 4 3 2 6 6 7 9 8 8 5 3 6 6 5 7 4 4 8 12 11 11 13 14 16 17 17 17 17 17 18 19
36 36 36 37 38 39 39 37 37 37 37 36 34 35 37 39 38 36 37 35 35 37 39 37 34 35 36 39 39 29 23 28 35 35 19 12 26 37 38 36 34 33 30 30 29 28 26 24 26 22 9 9 10 4 5 9 6 3 1 2 6 5 4 8 8 8 7 4 4 3 3 6 5 8 14 16 16 15 14 14 15 16 17 17 19 20 20 21
36 37 36 37 38 39 40 37 37 37 37 36 33 33 36 38 37 35 36 35 34 35 36 37 37 38 36 33 40 39 27 25 30 36 30 15 19 33 35 34 34 32 30 28 27 28 27 24 24 21 12 12 10 5 4 6 6 3 1 1 3 5 5 6 6 6 7 4 4 6 3 6 7 13 16 15 16 17 19 20 20 19 20 20 20 22 24 24
37 37 37 38 37 38 40 38 37 35 36 38 34 33 34 34 35 35 35 34 33 33 34 36 37 39 37 29 33 42 36 27 25 34 35 20 20 33 34 34 34 32 31 28 26 27 27 23 21 19 12 10 10 8 5 3 3 3 1 1 1 1 4 4 4 10 7 5 8 8 4 6 8 13 14 13 15 18 22 24 24 24 25 25 24 24 26 25
37 37 38 38 38 38 40 39 37 35 35 37 35 33 33 32 32 35 35 33 33 33 33 35 37 35 32 27 27 37 42 33 25 30 35 24 23 33 34 35 34 33 33 29 27 28 27 23 20 16 12 11 11 8 2 3 2 2 2 2 1 4 5 6 3 11 6 3 9 8 2 7 11 15 15 16 17 18 22 25 25 26 27 28 28 27 28 27
37 38 39 39 39 39 39 40 38 36 36 35 36 36 36 34 31 33 34 32 32 32 33 34 39 35 20 16 23 31 39 37 28 28 34 28 21 29 36 34 33 32 31 29 26 27 26 22 18 13 11 10 8 6 3 1 1 1 3 4 2 3 3 4 3 8 5 3 7 7 3 4 7 7 7 12 18 19 20 24 25 24 26 27 28 28 29 30
38 39 39 39 40 40 39 40 38 37 37 35 36 36 39 38 33 31 33 33 30 32 37 36 39 36 18 11 20 32 39 37 31 29 34 31 21 25 35 34 31 30 29 27 24 26 24 19 13 9 7 6 4 5 4 6 6 2 1 3 2 3 3 2 4 5 6 3 4 7 5 7 10 5 1 2 8 14 18 23 25 24 26 27 28 28 29 30
38 39 40 39 40 41 40 40 40 39 38 37 36 35 38 37 33 31 32 34 31 32 35 35 32 22 14 15 16 28 42 37 31 31 34 35 24 21 31 34 30 28 27 21 19 21 19 12 7 4 4 4 5 7 8 8 6 5 4 3 2 1 3 4 3 4 6 3 3 5 4 9 14 12 12 12 8 10 15 17 20 22 24 24 25 26 26 27
39 40 40 40 39 41 40 40 41 40 39 38 35 35 36 34 32 33 36 35 31 23 14 23 30 9 4 22 21 26 41 37 31 32 35 37 28 21 25 30 31 30 23 13 10 16 15 7 3 4 6 8 9 11 10 5 7 9 7 5 4 3 3 3 4 4 5 3 4 7 7 9 15 14 14 22 20 15 17 18 20 24 26 27 27 28 29 29
39 40 41 41 40 40 41 41 41 40 39 38 37 35 33 31 23 20 32 35 33 27 8 18 39 16 3 22 27 29 36 34 34 33 34 36 32 26 25 28 29 24 17 10 8 14 16 8 5 9 12 12 12 12 9 6 8 9 7 5 6 6 5 4 4 5 2 4 5 8 8 9 15 13 12 22 21 15 19 23 26 30 32 34 35 36 36 36
39 40 42 42 41 40 41 42 41 40 40 40 41 37 30 31 19 12 28 30 31 36 16 14 34 19 8 22 28 34 34 27 32 35 31 34 35 28 24 26 20 11 13 14 11 11 14 9 11 16 13 12 13 11 9 6 7 7 7 6 5 6 5 5 5 4 1 4 4 4 6 9 12 13 14 20 15 13 22 25 28 32 33 36 37 39 39 38
39 40 42 43 42 41 41 42 42 41 41 40 43 41 35 38 32 23 27 20 23 36 21 15 28 17 13 22 26 33 31 19 21 31 32 35 36 26 20 20 12 8 12 12 10 7 7 9 17 17 10 10 10 10 10 7 6 5 5 5 4 4 2 4 3 3 2 4 4 4 5 8 11 12 15 17 15 18 28 30 32 32 31 35 38 38 40 40
39 39 42 43 42 42 42 42 42 41 42 41 44 45 39 40 37 30 24 12 13 28 21 20 27 20 17 22 27 32 28 16 16 28 36 37 34 28 21 14 10 11 11 11 10 8 7 13 16 13 11 10 8 8 9 6 4 4 4 5 3 4 3 3 3 2 1 2 2 4 7 8 8 10 12 18 23 25 30 34 37 36 34 38 40 39 40 40
39 39 41 42 42 42 42 41 41 41 43 44 45 46 43 41 38 34 23 6 2 17 21 21 26 26 22 21 28 32 26 18 20 31 39 37 32 25 20 15 13 11 10 15 17 13 11 10 12 15 12 12 9 8 10 7 5 4 5 7 4 5 7 5 2 0 1 2 2 3 7 9 8 11 12 15 21 24 29 31 33 38 40 40 40 40 42 41
38 40 42 42 42 42 41 41 42 43 43 45 46 45 44 41 36 33 22 4 0 10 16 20 20 25 25 20 24 27 22 16 20 32 39 38 34 22 15 16 13 9 13 19 17 13 13 10 19 16 9 10 9 8 11 10 6 4 6 8 7 8 7 4 2 2 2 3 3 3 5 7 5 10 11 9 9 13 20 22 26 36 40 39 39 41 44 43
38 40 42 43 42 41 40 40 44 44 42 44 47 43 43 43 36 33 20 2 4 8 11 18 16 18 23 20 23 24 15 9 16 32 37 33 32 23 14 11 6 8 14 15 9 6 7 12 18 14 10 12 11 9 10 10 8 5 5 7 8 9 8 6 5 3 2 4 3 2 2 7 5 7 8 6 6 9 12 13 20 32 36 37 38 39 40 40
38 40 43 43 43 42 42 42 44 45 42 43 46 42 41 43 39 34 17 2 6 9 11 16 14 18 22 20 28 20 7 11 16 27 35 31 27 21 13 7 4 7 10 7 6 4 7 13 13 12 13 12 11 9 9 12 8 4 6 11 9 8 8 6 5 3 2 3 3 2 3 6 10 7 7 9 11 12 10 10 15 26 32 36 38 38 39 39
39 41 43 43 43 45 45 43 42 46 46 43 46 43 38 40 38 29 12 3 6 9 10 12 12 19 24 26 33 16 7 18 15 20 36 34 25 17 10 10 9 9 10 10 9 6 10 16 16 16 14 10 11 9 10 13 7 4 8 12 9 8 7 6 5 3 0 1 4 3 3 4 11 6 2 6 11 13 10 9 12 21 30 36 39 41 41 41
38 41 43 43 42 44 45 41 40 46 47 42 45 44 40 40 33 17 4 3 5 4 8 16 13 16 22 24 24 12 8 9 6 18 36 31 24 16 7 11 13 11 13 14 8 3 5 12 17 16 12 10 10 9 14 15 7 5 9 9 6 6 5 4 5 4 2 1 10 9 6 4 11 8 3 4 7 10 8 7 11 22 32 36 38 41 40 38
38 41 42 42 41 43 44 42 38 42 45 42 43 45 42 38 22 7 6 4 3 2 8 17 15 16 20 16 10 7 6 3 7 22 27 21 21 17 9 11 11 8 10 11 8 2 2 5 11 10 9 9 8 10 15 15 10 10 8 8 6 4 4 2 2 3 2 5 14 13 9 7 10 7 4 4 5 7 6 6 8 17 27 33 34 35 33 31
38 41 41 42 44 44 46 46 41 40 46 43 42 47 39 23 8 4 7 3 4 4 8 13 14 16 20 15 8 7 6 4 10 16 13 10 14 12 9 8 5 5 7 7 7 3 3 3 6 6 11 13 11 7 8 11 15 11 6 6 5 2 2 2 2 2 5 9 12 9 9 9 10 6 1 3 5 4 6 6 7 11 20 26 27 25 24 22
38 40 40 42 45 44 46 50 44 42 47 45 45 45 26 8 5 4 4 5 4 6 8 12 14 14 17 15 11 10 8 6 9 11 9 7 7 8 9 9 6 5 5 8 8 5 3 2 1 3 13 19 14 5 3 7 10 8 6 7 6 3 3 3 4 5 7 8 4 6 10 7 12 13 10 9 8 6 7 9 10 12 17 21 20 18 18 19
37 39 39 40 43 45 46 47 44 42 48 51 47 33 12 5 7 4 5 5 3 4 9 13 16 17 19 16 11 11 9 6 9 11 10 8 7 8 11 12 11 4 3 9 8 6 5 2 1 2 8 18 17 9 6 6 9 10 10 9 8 6 6 7 6 4 7 8 2 6 7 2 8 13 14 15 16 20 24 24 24 24 25 28 28 28 30 32
37 37 38 39 41 45 46 45 45 44 49 52 37 17 9 8 4 6 7 4 1 5 9 12 15 18 17 14 12 13 9 6 9 10 9 9 7 7 8 10 11 4 3 6 6 7 9 6 7 6 6 14 17 14 12 9 10 12 10 8 8 7 5 6 6 6 7 4 1 4 4 3 6 5 4 6 7 15 23 26 29 32 35 38 39 40 42 43
35 35 37 39 40 44 44 43 45 46 50 45 20 7 11 8 2 5 7 4 3 6 8 12 16 15 12 9 10 12 6 4 11 10 8 10 8 8 8 8 12 8 4 4 2 5 9 7 7 8 7 14 16 14 15 11 7 6 5 7 9 8 6 3 3 5 5 1 2 4 3 5 6 7 8 5 2 5 11 13 19 26 32 36 37 39 41 40
33 33 35 38 41 43 43 42 43 47 50 32 8 5 8 2 1 5 5 5 8 11 13 12 11 10 8 4 7 11 3 4 12 8 5 9 8 9 8 5 11 12 7 6 2 2 6 4 3 8 8 15 16 13 16 14 8 4 5 8 6 4 5 3 1 2 4 2 4 4 4 6 7 12 13 11 10 8 8 11 16 20 23 25 28 32 34 34
34 34 34 37 41 44 45 43 41 49 47 23 6 5 3 1 1 4 7 9 12 15 15 11 8 9 10 5 6 13 6 4 11 8 4 8 7 7 7 2 7 14 12 8 2 2 5 1 1 6 7 13 16 14 13 11 7 6 8 8 3 2 2 2 2 1 3 4 4 5 10 7 6 8 5 4 8 5 6 10 15 17 18 21 28 32 34 35
35 34 33 35 39 44 46 42 42 49 37 13 6 5 2 2 3 2 8 13 13 14 11 7 6 8 11 10 9 14 12 7 11 9 6 7 6 9 10 3 5 11 13 12 5 1 4 1 3 5 5 5 8 10 7 6 2 2 4 7 5 1 2 3 3 3 4 5 3 5 9 7 7 9 6 3 5 2 3 5 6 11 16 23 31 34 36 38
34 28 24 30 38 43 44 41 44 44 23 6 8 6 1 3 3 5 14 16 13 12 9 6 7 6 9 11 11 15 15 12 12 10 8 6 5 10 14 8 6 9 11 13 8 1 3 3 3 2 3 5 6 6 7 6 2 1 2 5 4 2 3 5 5 3 4 5 4 4 5 5 7 10 11 11 8 5 6 6 4 10 19 25 30 32 35 36
33 19 11 26 39 40 42 41 38 30 12 4 8 5 2 4 2 7 16 16 9 5 6 8 10 10 9 9 9 11 11 10 12 10 7 7 6 7 11 10 8 10 11 9 6 2 2 3 4 1 2 5 6 6 10 12 8 5 5 6 5 3 1 1 3 3 3 4 5 5 6 6 5 6 9 10 8 8 9 8 7 13 22 27 28 29 31 31
28 10 5 26 37 38 42 36 21 10 4 3 4 3 3 5 4 6 10 11 6 1 3 8 10 10 11 11 9 9 8 7 10 8 4 8 8 4 9 14 14 13 10 5 4 3 2 2 4 3 3 5 4 2 5 7 9 9 9 9 10 9 4 2 5 4 2 4 4 4 8 8 4 4 5 7 7 7 9 8 8 14 21 23 23 23 25 28
20 4 6 29 38 41 41 22 4 3 2 3 5 5 5 7 7 5 5 7 5 2 3 5 4 6 9 9 10 11 9 7 9 9 5 8 10 6 11 20 22 20 13 6 5 4 3 3 3 2 3 4 1 1 0 1 3 6 6 6 9 8 7 8 9 5 4 5 3 1 6 8 5 4 4 5 5 4 5 7 8 13 17 17 18 20 23 28
14 3 13 34 42 44 33 8 1 4 1 3 9 7 5 6 5 4 4 4 3 2 4 3 1 4 5 5 8 11 11 6 7 9 5 6 6 4 9 20 25 20 11 6 6 5 4 3 3 2 1 2 2 1 1 3 2 3 5 5 6 9 11 9 6 3 4 6 6 4 6 9 7 3 4 5 5 3 4 6 8 14 16 16 18 19 23 28
12 6 12 31 43 44 24 2 3 6 2 4 8 6 3 2 3 6 6 4 2 4 5 3 2 3 2 5 9 13 12 6 4 6 4 4 3 2 13 27 26 15 8 8 10 10 6 4 4 4 1 0 1 2 2 2 1 2 5 7 9 11 11 4 2 2 1 6 9 6 6 9 5 2 4 3 3 1 2 3 6 11 15 16 17 19 23 26
11 6 6 21 38 40 18 2 5 6 5 7 7 6 6 2 0 5 6 3 1 3 5 3 2 3 3 5 7 9 9 4 4 5 2 2 2 1 13 29 26 14 12 16 18 14 7 4 6 7 6 6 7 6 4 3 3 1 1 6 9 11 12 7 4 6 4 6 9 7 6 8 7 3 2 3 5 5 9 9 11 13 15 18 18 19 22 23
7 3 2 8 16 20 12 6 7 6 7 11 8 6 9 6 1 3 5 3 1 3 5 2 4 6 4 7 8 8 7 2 1 6 5 5 4 1 9 23 23 16 14 18 22 14 3 3 8 10 10 10 10 8 4 4 5 4 5 7 8 9 10 8 6 6 3 4 8 7 4 7 12 12 9 3 1 6 11 12 15 16 15 17 18 18 20 20
4 2 2 3 3 5 6 7 7 4 6 9 7 6 9 10 6 3 3 1 1 4 5 3 5 7 7 11 10 8 8 3 2 8 9 6 2 1 5 12 14 15 14 15 20 13 3 4 9 10 12 13 12 9 6 6 7 9 9 11 11 10 10 8 7 6 2 1 5 3 2 4 12 15 14 9 5 6 9 13 17 18 15 15 15 17 20 21
2 2 2 4 3 2 5 8 8 7 5 4 4 7 11 12 11 7 3 1 2 4 3 3 5 9 12 14 9 8 9 3 1 7 7 6 4 2 4 2 5 11 11 11 13 9 3 6 9 9 13 14 13 9 6 6 6 8 11 13 14 15 16 14 15 14 9 6 7 4 4 6 13 17 19 16 10 11 14 18 18 16 13 12 13 17 22 24
3 4 4 6 4 1 5 12 14 12 8 3 2 7 12 15 13 7 3 4 4 1 1 5 8 9 13 13 9 9 11 7 6 7 6 9 8 6 6 2 3 8 9 7 6 3 2 6 7 8 11 12 13 9 5 6 6 5 9 12 12 14 17 17 17 16 14 13 12 10 12 14 15 18 22 20 13 12 15 16 14 11 10 11 14 18 21 24
4 3 3 6 5 4 5 10 12 11 6 4 3 5 10 14 14 6 1 6 10 4 3 10 13 13 13 14 12 11 15 16 14 11 8 10 7 5 6 5 3 5 6 5 3 0 1 5 5 6 6 9 11 7 5 7 7 7 9 8 7 9 11 13 15 13 12 13 15 15 14 14 15 18 21 20 14 10 12 13 13 15 17 19 21 23 26 26
7 6 7 7 4 3 6 5 7 9 5 3 5 6 9 13 15 10 2 2 7 9 10 14 16 13 10 12 12 13 17 17 11 11 14 14 11 8 5 5 7 7 5 4 3 2 1 1 2 5 4 7 7 7 7 5 5 8 9 7 5 5 7 10 12 12 13 13 15 15 12 13 15 12 13 18 19 16 16 14 16 22 26 27 28 30 31 31
10 9 9 8 3 1 5 4 5 8 6 4 5 7 9 11 12 12 6 1 2 5 11 14 15 10 8 12 14 13 17 12 7 12 16 12 12 12 7 9 14 12 8 6 4 3 5 3 1 4 5 6 7 7 6 4 3 7 8 9 10 9 9 10 11 14 15 14 12 11 11 13 13 8 8 17 21 18 15 15 19 25 28 28 31 33 32 30
Wind_Direction
237 237 239 239 238 239 239 237 232 225 220 218 220 220 220 221 223 224 225 228 229 225 221 221 220 217 218 219 218 218 221 222 219 215 218 225 229 229 233 232 226 223 220 217 214 211 207 205 209 213 215 202 183 173 167 164 158 153 113 131 219 171 199 190 178 192 172 288 193 185 185 177 191 197 191 190 203 222 233 224 221 224 225 222 222 224 225 219
235 234 237 238 235 235 237 237 233 230 225 220 218 218 220 221 221 223 224 227 229 226 221 220 220 217 215 216 217 215 218 222 218 217 224 228 226 225 228 229 225 220 217 216 213 211 207 205 205 205 209 195 178 168 166 170 158 141 105 156 218 186 203 199 185 192 160 29 181 182 187 190 206 194 186 192 204 210 227 231 227 232 231 226 230 234 237 236
234 233 234 236 234 233 236 236 233 231 228 223 219 216 219 221 220 222 223 224 228 227 222 219 218 216 213 214 215 213 215 221 220 221 226 224 221 222 223 224 223 218 214 214 212 210 208 206 205 204 199 185 176 173 159 166 168 145 125 177 235 209 219 225 200 195 179 9 162 179 190 198 213 194 189 195 184 196 221 228 226 235 241 234 232 237 242 242
233 232 232 233 233 232 234 235 232 230 228 225 222 217 217 221 221 222 221 221 224 228 225 218 216 214 212 211 211 210 210 218 228 226 225 221 219 219 219 219 218 216 212 209 207 205 205 204 205 203 191 171 160 176 176 173 183 172 157 187 218 174 187 251 209 198 210 321 156 178 183 205 214 195 194 187 158 220 234 233 233 243 256 248 235 239 244 245
232 231 231 232 232 232 232 233 233 231 229 226 223 219 216 218 222 222 221 220 221 225 225 217 213 211 210 209 206 204 200 212 240 231 224 219 216 217 215 214 214 213 208 205 203 199 198 197 197 193 180 163 151 161 203 186 172 168 189 218 166 145 140 270 211 218 249 264 160 171 172 209 206 199 206 193 181 230 236 240 247 255 272 263 246 247 248 247
233 232 230 230 231 230 231 231 233 231 229 227 224 221 216 216 220 222 221 219 218 220 223 219 213 210 206 205 204 199 194 195 280 234 225 218 213 214 211 209 210 209 205 203 200 196 192 184 183 182 168 146 165 171 183 180 180 187 238 241 183 174 168 90 173 216 253 230 195 184 194 203 188 210 221 210 220 234 240 255 255 255 268 262 249 246 247 246
234 232 230 229 228 228 229 229 231 231 228 227 224 221 219 215 217 222 220 217 217 217 220 219 213 209 203 201 204 200 202 210 235 229 223 217 212 211 208 207 207 207 204 201 199 196 191 183 177 174 163 130 177 192 165 166 180 180 245 240 212 220 212 239 263 292 259 241 262 229 217 202 190 214 227 223 236 240 242 251 252 255 266 266 248 240 245 247
233 232 230 228 227 226 228 228 229 230 228 225 222 221 220 217 216 221 220 216 216 218 219 218 213 208 201 199 198 195 206 215 214 221 215 210 211 209 205 203 203 205 203 201 201 197 192 187 181 172 163 159 179 188 171 166 184 184 221 222 200 239 223 237 258 261 264 256 272 247 227 221 209 214 228 235 245 247 245 248 253 260 266 268 254 242 243 244
233 232 229 229 227 225 226 226 226 229 228 223 221 220 219 217 215 218 220 217 215 217 218 218 213 206 201 202 199 195 211 213 208 211 193 198 205 207 205 200 199 201 199 200 202 200 195 189 186 180 179 184 178 178 169 175 231 211 219 213 197 224 223 249 261 259 263 249 250 245 243 245 223 222 250 248 251 255 250 249 253 259 262 264 260 249 244 245
233 231 229 228 226 225 226 224 222 225 226 222 221 219 216 215 214 215 218 217 214 214 216 217 210 204 200 202 205 213 220 213 207 208 194 194 199 202 205 201 200 200 198 198 199 202 199 195 194 187 187 187 179 174 159 172 210 210 217 217 223 236 247 260 260 251 260 255 239 233 251 261 231 216 249 249 253 256 251 251 252 255 258 259 262 256 248 249
232 231 229 227 226 224 225 223 221 222 222 222 222 220 216 214 214 214 217 217 214 212 214 216 211 207 202 201 207 217 216 212 209 206 201 201 200 199 201 200 201 202 200 197 197 202 200 201 197 185 184 183 172 173 178 192 207 212 216 249 258 249 248 246 241 244 243 261 246 228 261 276 241 209 235 241 249 258 255 254 253 254 258 259 260 257 251 251
232 230 229 227 225 224 224 222 222 221 219 221 221 219 216 215 215 215 216 217 215 213 212 214 213 210 206 204 211 214 208 210 210 205 205 218 205 201 200 198 200 203 204 200 197 199 198 200 196 188 182 164 155 150 209 208 206 230 207 258 291 322 283 231 224 235 221 238 245 201 289 275 235 231 241 246 250 255 258 258 256 257 259 260 258 256 255 255
231 230 229 227 225 223 223 221 221 221 217 220 221 217 215 214 215 216 217 216 215 214 210 210 212 206 203 205 212 214 207 207 209 205 208 221 204 198 198 196 196 201 206 206 201 196 195 197 198 194 174 157 157 129 156 181 186 222 107 138 304 343 309 231 196 190 190 223 187 154 262 266 244 244 243 247 249 250 253 255 256 259 262 261 259 258 259 259
229 229 227 225 224 221 221 220 219 220 217 218 218 216 215 212 215 217 217 215 214 214 208 211 211 200 203 212 213 213 210 209 209 205 208 212 192 191 194 193 193 196 200 204 202 196 194 193 196 193 171 160 160 138 111 90 145 184 98 100 187 209 274 274 179 161 167 226 181 159 249 263 265 261 250 247 247 246 249 254 256 259 262 262 261 260 261 261
227 227 225 224 223 220 220 219 218 216 215 215 213 213 214 212 214 214 217 216 212 213 208 214 215 198 201 220 216 210 209 210 208 203 206 207 190 188 191 192 192 193 195 198 199 195 191 189 190 184 167 157 151 139 87 22 69 129 169 230 225 194 262 309 195 170 171 209 173 162 236 262 272 270 260 250 243 241 246 253 257 259 262 263 262 261 261 262
226 225 224 222 222 220 219 218 218 214 212 213 210 209 211 213 217 214 218 218 210 211 207 215 219 202 196 221 214 205 205 206 204 199 202 205 197 191 191 190 190 192 192 194 195 192 186 183 183 176 159 153 148 124 79 39 253 245 199 213 209 191 240 309 252 202 193 131 169 198 223 257 273 271 263 244 237 239 242 251 254 256 260 261 263 262 262 264
225 223 222 221 220 219 217 216 216 213 211 210 207 207 207 211 219 216 218 219 213 209 206 213 216 206 204 215 199 193 197 202 199 193 197 199 197 192 189 186 188 192 191 191 190 187 181 173 171 175 162 153 138 124 149 221 222 211 192 201 197 180 176 221 283 239 199 150 199 219 214 241 253 243 270 261 236 239 241 250 255 256 260 262 265 267 267 268
225 222 220 220 219 218 216 214 214 213 210 206 204 204 204 210 217 217 216 214 211 209 209 212 208 201 209 205 184 184 194 197 191 189 195 196 196 194 186 181 183 186 184 183 183 179 172 162 156 160 158 165 157 163 198 218 189 172 176 179 186 187 178 195 250 217 177 175 216 211 221 249 258 258 257 261 257 248 247 253 259 261 261 262 265 268 272 274
224 222 219 218 218 217 216 213 211 211 208 204 202 201 205 208 210 213 213 207 200 200 210 204 197 199 214 193 181 184 192 190 183 187 192 193 193 191 184 180 178 176 172 168 182 176 160 141 140 169 186 190 185 189 201 179 149 172 176 164 162 179 222 219 243 235 172 189 223 215 224 239 254 261 255 256 255 254 260 263 264 265 265 265 268 272 274 275
223 220 219 217 217 216 215 213 210 209 206 201 198 198 199 195 194 204 204 202 198 196 216 203 196 199 151 176 174 178 184 183 181 183 188 191 187 179 174 174 173 170 170 166 174 175 166 163 191 200 200 190 190 194 188 147 136 158 159 167 176 185 234 232 242 282 177 195 240 227 229 238 252 262 257 258 259 255 260 263 262 263 265 267 270 272 273 273
222 219 218 217 215 214 213 212 209 206 205 199 196 199 196 186 186 186 185 195 206 203 220 216 194 189 157 170 176 174 169 171 179 179 185 187 181 175 167 167 167 169 185 167 136 158 173 190 210 207 200 183 188 190 174 149 121 130 153 174 189 193 237 231 226 298 133 182 261 254 247 248 251 262 259 256 258 252 252 255 257 258 261 265 267 269 271 273
221 218 216 215 215 212 212 211 208 205 203 200 198 200 202 198 200 199 182 184 208 207 217 211 193 186 163 175 186 180 166 158 172 175 177 176 176 177 167 167 174 172 179 154 125 151 173 214 216 199 178 168 181 183 175 167 128 116 140 152 190 201 249 274 259 301 147 180 267 284 268 255 250 259 258 250 244 247 251 253 257 257 258 261 264 266 268 269
219 217 213 214 213 210 211 211 206 203 202 202 202 201 203 202 203 204 189 166 196 206 210 202 196 189 167 171 183 181 172 163 164 170 174 174 176 179 170 167 180 170 163 161 164 169 182 221 210 165 149 165 167 168 163 159 149 136 136 149 196 188 173 256 262 256 175 152 286 282 277 267 253 257 260 248 241 246 251 253 258 258 256 259 261 263 264 265
216 215 212 212 211 209 210 209 204 204 203 204 205 203 203 202 201 199 183 125 172 202 203 197 193 193 180 169 175 177 175 173 172 174 176 176 173 174 175 169 172 168 166 179 180 185 207 208 161 146 168 169 148 160 164 170 194 181 175 183 185 172 185 216 235 196 39 360 9 358 295 274 240 238 253 246 236 241 246 247 253 255 255 257 259 260 260 261
214 213 212 209 209 208 208 207 204 201 204 207 206 205 204 201 200 193 173 100 288 189 197 194 191 195 186 174 176 174 172 176 181 179 177 178 171 163 174 176 175 176 176 182 181 198 216 170 148 168 179 148 146 174 179 180 189 204 211 199 171 164 184 190 149 101 38 310 327 38 296 277 221 220 243 248 225 231 240 240 244 251 255 257 257 258 259 261
212 211 210 208 208 205 203 206 204 198 201 208 207 206 205 203 202 191 170 96 225 172 175 187 189 191 186 177 169 164 168 181 188 183 177 179 175 163 164 172 175 183 176 180 182 201 209 164 166 180 154 148 171 185 186 176 175 216 203 164 152 157 164 162 154 155 190 254 276 75 233 271 276 233 230 236 237 232 231 233 239 245 252 255 255 257 259 262
211 209 208 208 206 202 200 202 203 197 196 204 207 204 202 202 199 185 169 321 219 162 152 176 182 184 186 176 164 160 164 157 168 186 182 180 180 169 164 165 158 177 164 164 194 191 173 172 178 175 159 169 186 188 187 172 173 224 164 140 143 149 156 161 149 162 206 255 285 84 125 274 281 256 203 203 233 244 231 230 241 243 248 253 257 259 260 262
208 207 206 206 205 204 202 201 201 197 195 201 203 199 195 195 187 173 173 268 176 141 145 168 172 177 177 168 167 162 131 147 153 186 186 184 182 171 170 183 171 166 163 171 195 183 168 179 182 174 172 187 194 185 167 162 176 223 160 147 153 146 141 147 127 130 105 343 272 238 128 262 271 260 171 192 227 245 236 225 241 246 248 252 257 261 261 263
206 205 205 204 204 206 204 201 201 198 198 199 199 198 193 187 177 160 196 241 139 120 151 162 163 164 158 156 167 160 124 147 142 170 179 183 182 174 177 189 173 155 171 187 196 165 169 193 187 175 176 194 192 164 155 168 184 177 143 121 123 119 105 124 125 118 87 262 249 236 166 223 271 261 199 192 226 244 242 219 229 242 247 251 256 261 263 265
203 203 204 202 202 204 203 201 201 199 196 196 198 195 186 178 172 167 220 201 119 145 147 155 160 152 148 150 166 160 129 123 133 155 171 179 178 175 163 174 167 141 170 198 205 222 351 181 177 181 190 180 155 147 165 168 145 129 114 89 86 70 59 72 87 110 128 239 245 234 178 190 271 275 184 193 219 218 220 230 236 241 247 252 256 262 268 270
202 202 202 201 201 201 199 198 200 198 194 193 190 182 173 169 175 201 203 143 94 166 144 146 155 148 155 160 157 152 134 132 147 149 159 172 174 168 149 157 161 142 168 191 197 230 339 122 156 187 176 144 115 127 155 142 136 128 102 110 114 71 63 70 60 147 203 240 246 223 169 183 241 260 145 225 243 207 198 220 239 245 253 258 261 266 272 275
201 201 200 201 201 202 200 198 198 195 193 191 179 169 163 173 212 199 163 126 141 190 160 147 155 154 160 163 162 165 151 150 164 157 156 167 173 173 169 173 172 166 180 181 181 192 212 199 148 157 158 148 134 122 111 134 150 140 119 141 152 168 183 189 196 185 211 245 258 159 155 188 240 255 261 257 259 253 232 228 238 250 259 266 269 271 275 277
200 199 200 201 201 201 201 199 196 193 190 184 173 164 165 216 201 155 121 145 174 183 159 154 158 157 157 161 171 169 155 161 171 165 165 164 169 184 188 184 173 149 164 177 179 177 180 232 209 125 157 161 154 149 160 168 172 167 162 167 174 181 195 209 209 201 217 241 265 144 152 211 260 266 261 249 250 248 246 248 252 258 263 268 271 272 274 275
198 198 198 199 201 202 201 197 196 193 183 175 167 163 192 207 175 115 132 172 184 140 153 154 150 152 158 166 172 164 158 182 175 163 168 167 172 191 193 186 172 118 81 165 181 181 186 216 193 171 176 174 171 175 174 161 173 183 175 174 181 182 198 210 203 205 213 232 252 171 163 196 218 247 244 221 237 245 247 251 253 257 260 263 267 267 269 271
196 198 197 198 200 201 201 197 196 192 178 169 165 183 196 193 147 132 147 160 149 132 140 146 144 150 163 164 164 166 158 167 170 167 176 176 183 189 180 181 179 160 119 158 182 188 202 232 192 158 158 174 179 179 162 145 169 194 160 174 199 197 186 185 186 187 179 183 244 210 215 222 230 289 286 239 191 223 240 250 251 253 255 258 262 264 266 269
191 194 196 197 197 198 199 197 194 189 178 169 175 210 190 180 146 160 153 150 156 143 134 142 149 152 159 145 157 170 132 94 162 173 180 180 197 194 172 166 182 182 169 155 127 172 201 245 169 140 156 183 184 171 163 162 163 175 181 187 201 188 165 159 198 134 110 189 220 199 238 267 281 291 280 253 247 236 224 239 245 247 253 260 264 265 267 269
186 189 193 194 195 196 197 195 190 182 177 176 200 198 160 53 166 151 149 148 147 147 143 149 163 158 155 148 160 171 155 110 163 177 182 180 197 189 167 146 184 186 183 170 161 200 177 306 226 162 172 192 180 161 172 187 160 153 192 183 124 66 109 113 211 154 120 217 230 202 225 239 246 268 284 251 257 249 201 231 250 255 260 265 266 267 271 274
182 184 189 194 196 195 194 194 187 178 176 183 188 170 78 145 190 167 153 147 143 153 155 151 159 163 163 161 163 169 168 162 168 177 184 180 189 173 162 166 193 181 174 166 167 209 155 121 275 197 168 169 155 148 179 228 222 145 179 158 128 167 198 168 195 187 172 213 243 216 223 220 213 242 268 245 229 209 210 245 263 261 258 259 263 269 275 278
175 176 185 192 195 195 193 192 186 179 179 205 185 178 90 140 188 193 163 152 148 157 163 158 155 167 175 169 164 167 173 176 170 174 186 181 189 182 169 166 179 175 165 163 168 161 141 181 241 214 157 142 139 160 185 200 228 346 123 147 144 185 198 187 197 194 174 203 229 221 220 217 213 233 249 249 236 218 244 256 232 238 250 256 262 270 278 284
170 168 184 188 191 195 191 186 186 185 187 210 182 167 124 127 192 201 172 158 150 151 165 167 159 162 169 164 162 168 176 180 172 177 191 178 180 196 181 165 157 169 172 166 164 126 99 187 205 154 142 165 172 195 195 187 184 181 169 168 177 186 173 190 207 189 166 192 215 232 237 234 225 225 233 242 239 219 227 238 230 238 250 259 268 274 281 288
167 161 182 184 189 193 185 181 188 190 177 179 160 123 144 148 155 185 172 152 135 58 154 161 162 163 161 157 164 173 173 171 174 179 187 181 185 205 192 177 159 157 167 161 169 171 127 172 179 151 174 187 183 202 201 192 184 185 187 182 186 188 168 196 215 187 170 210 204 222 245 250 242 208 204 216 222 220 226 232 237 248 257 267 277 282 285 287
166 156 163 174 182 184 178 179 193 139 153 160 129 117 141 146 152 174 164 136 119 54 102 129 142 150 154 158 162 167 165 163 179 182 182 192 195 199 192 178 160 153 157 159 179 174 106 111 150 163 213 207 162 53 109 218 188 201 216 196 188 188 175 201 222 196 174 216 219 241 258 261 247 189 170 185 197 214 226 221 233 254 263 272 281 288 290 289
169 154 158 167 178 180 175 180 337 135 121 112 112 102 121 138 151 173 165 140 117 100 111 97 113 146 156 157 148 157 163 163 180 182 174 181 192 199 175 163 155 153 153 152 167 147 93 109 156 157 293 308 328 323 22 26 67 203 238 217 195 196 194 203 216 170 163 201 206 220 251 262 258 192 140 149 152 160 209 216 241 262 268 270 275 287 293 294
152 119 149 164 175 181 178 178 167 153 88 105 109 86 85 113 157 166 171 167 147 141 133 126 171 157 152 149 149 161 165 159 178 179 164 164 181 172 156 157 158 160 165 172 170 164 163 173 171 167 173 254 283 274 285 303 237 205 222 214 210 211 209 205 94 118 203 194 192 206 234 250 261 98 89 68 63 26 259 231 251 271 282 287 289 293 293 294
132 103 137 160 171 181 187 161 149 149 122 127 123 123 130 95 245 157 149 141 131 130 126 136 147 98 98 130 133 154 159 141 164 169 134 148 165 121 160 165 166 167 181 180 168 163 177 183 175 186 197 199 208 220 222 208 193 212 224 207 209 207 205 205 199 214 220 181 187 207 227 246 266 275 290 2 22 325 296 284 271 270 282 293 296 295 294 297
138 130 140 147 163 178 183 152 139 138 143 140 130 146 152 140 112 105 109 104 7 96 98 101 122 94 98 132 124 150 167 74 67 168 164 166 169 290 178 174 175 177 180 174 161 153 157 204 188 198 209 213 221 225 197 118 135 185 204 203 207 207 207 209 209 213 199 166 198 214 224 256 267 268 270 277 218 267 279 275 268 266 269 276 281 284 287 289
153 170 150 117 115 147 144 136 133 127 152 152 142 158 157 145 144 121 88 65 207 127 81 39 137 135 150 153 141 160 169 86 65 172 172 171 171 338 174 175 184 182 169 165 163 147 97 211 198 202 214 222 230 223 179 147 169 185 189 198 203 208 215 223 229 222 174 126 233 238 45 295 273 274 275 266 230 238 263 266 267 268 264 262 269 276 279 278
149 121 87 122 137 169 154 152 150 130 128 138 134 154 157 152 156 156 127 90 171 151 88 70 162 168 164 158 148 157 161 120 125 183 170 159 153 123 133 148 206 182 157 158 170 148 121 205 203 201 213 227 235 220 158 151 186 190 193 202 202 201 205 211 224 225 207 213 240 215 162 229 260 269 269 265 251 240 254 262 263 260 253 251 260 265 269 273
113 103 74 108 113 314 154 151 149 137 132 137 133 161 164 161 163 161 115 124 154 235 111 139 173 178 165 161 151 154 167 166 186 203 183 166 166 150 142 140 228 187 159 150 172 155 154 200 201 197 211 231 236 224 156 158 194 204 208 213 206 202 203 206 219 223 212 220 234 220 208 221 238 252 260 266 263 239 240 250 248 244 251 258 263 264 266 269
135 142 108 112 89 55 110 138 146 139 138 157 162 177 174 166 164 159 93 151 158 182 187 163 172 176 171 170 164 169 185 186 187 192 172 161 171 166 165 171 162 164 153 139 161 226 190 195 177 161 199 238 240 232 188 184 208 224 226 229 219 207 206 210 219 223 214 221 232 229 231 239 242 248 260 272 271 240 231 240 247 258 267 269 270 272 273 275
142 158 147 128 93 97 124 135 149 143 149 188 172 169 180 180 168 151 123 210 168 174 185 173 169 168 166 175 181 188 193 190 183 171 162 166 178 176 177 174 142 134 136 141 143 114 133 203 125 128 190 237 234 221 206 190 221 243 238 234 219 204 208 214 218 219 213 214 225 229 234 244 247 254 275 278 267 250 243 245 250 259 262 264 268 272 273 278
134 140 144 131 87 90 137 136 157 159 166 182 166 167 182 186 170 149 140 272 254 191 187 170 156 148 158 184 195 194 184 174 145 152 158 160 166 161 151 156 155 152 159 163 148 139 158 177 150 147 193 235 229 204 182 164 226 249 234 220 216 213 216 221 223 224 220 211 214 223 226 240 253 267 278 268 260 253 253 252 252 256 258 259 265 270 274 278
Height
1452 1454 1456 1459 1461 1464 1466 1467 1470 1473 1476 1478 1481 1484 1487 1490 1492 1496 1498 1501 1504 1506 1508 1510 1512 1514 1516 1518 1520 1523 1526 1526 1527 1528 1525 1528 1535 1538 1538 1540 1542 1544 1546 1547 1548 1550 1552 1553 1554 1555 1556 1557 1558 1558 1559 1559 1560 1560 1563 1567 1569 1572 1570 1566 1567 1567 1564 1563 1564 1564 1564 1565 1566 1567 1568 1569 1570 1570 1570 1569 1569 1569 1569 1570 1570 1571 1571 1572
1448 1451 1453 1456 1458 1461 1463 1465 1467 1470 1473 1476 1478 1481 1485 1487 1490 1493 1496 1499 1501 1504 1506 1508 1510 1512 1514 1517 1519 1521 1523 1524 1526 1523 1521 1528 1534 1535 1536 1539 1541 1543 1545 1546 1547 1549 1550 1552 1553 1555 1556 1556 1557 1557 1558 1559 1559 1560 1564 1567 1568 1568 1565 1562 1563 1563 1563 1563 1563 1564 1564 1564 1565 1566 1567 1568 1569 1569 1569 1568 1568 1568 1568 1569 1569 1570 1570 1571
1445 1447 1450 1452 1455 1458 1460 1463 1464 1467 1471 1474 1476 1479 1482 1485 1488 1491 1493 1496 1499 1502 1504 1506 1509 1510 1513 1515 1517 1521 1522 1524 1522 1517 1519 1527 1531 1532 1536 1538 1539 1541 1543 1545 1546 1548 1549 1551 1553 1554 1555 1556 1557 1557 1557 1558 1559 1560 1563 1565 1564 1563 1562 1561 1562 1562 1563 1563 1564 1564 1564 1565 1565 1565 1567 1567 1568 1568 1568 1567 1567 1567 1566 1567 1568 1569 1569 1570
1441 1444 1447 1449 1452 1455 1457 1460 1462 1464 1468 1471 1474 1477 1479 1482 1485 1488 1491 1494 1497 1500 1502 1504 1506 1509 1512 1513 1517 1519 1522 1524 1514 1509 1518 1524 1527 1530 1533 1535 1538 1540 1542 1544 1545 1547 1549 1550 1552 1553 1555 1556 1556 1557 1557 1558 1558 1559 1561 1562 1562 1561 1561 1561 1561 1562 1563 1563 1564 1564 1565 1565 1564 1565 1566 1565 1567 1567 1565 1564 1565 1565 1565 1566 1567 1568 1568 1568
1438 1440 1443 1446 1449 1452 1454 1457 1460 1462 1464 1468 1472 1474 1477 1479 1483 1486 1488 1491 1494 1497 1500 1502 1504 1507 1510 1512 1516 1517 1523 1523 1506 1505 1516 1520 1524 1528 1530 1534 1536 1537 1540 1542 1544 1546 1548 1549 1551 1552 1554 1555 1556 1557 1557 1557 1558 1559 1559 1560 1560 1561 1561 1561 1562 1563 1563 1563 1563 1564 1565 1565 1565 1565 1564 1564 1564 1563 1562 1563 1563 1564 1564 1565 1566 1566 1566 1567
1434 1437 1440 1443 1445 1449 1451 1454 1457 1459 1461 1464 1468 1472 1474 1477 1480 1483 1486 1489 1492 1495 1497 1499 1502 1505 1507 1510 1513 1513 1516 1513 1501 1504 1512 1516 1521 1525 1528 1532 1533 1536 1538 1540 1542 1544 1546 1548 1549 1551 1553 1554 1556 1556 1556 1557 1558 1558 1559 1559 1560 1561 1561 1561 1562 1562 1563 1563 1563 1564 1564 1564 1565 1564 1564 1563 1561 1559 1561 1562 1563 1563 1563 1564 1564 1565 1565 1565
1431 1434 1437 1439 1442 1445 1448 1451 1454 1457 1459 1461 1465 1469 1472 1474 1477 1480 1483 1486 1489 1492 1494 1496 1499 1502 1506 1509 1510 1510 1507 1502 1501 1503 1506 1513 1519 1521 1526 1529 1531 1534 1536 1538 1540 1542 1545 1546 1548 1549 1551 1554 1555 1556 1556 1557 1557 1558 1558 1558 1559 1560 1561 1561 1562 1562 1563 1563 1563 1563 1563 1563 1563 1563 1563 1562 1559 1559 1561 1561 1561 1562 1562 1563 1563 1563 1563 1564
1428 1430 1433 1436 1439 1442 1445 1448 1451 1454 1457 1459 1463 1466 1470 1472 1475 1478 1481 1484 1486 1490 1492 1494 1497 1500 1504 1505 1505 1505 1500 1498 1503 1504 1504 1510 1515 1518 1523 1525 1529 1531 1533 1536 1538 1540 1543 1545 1547 1548 1550 1553 1553 1554 1556 1557 1558 1558 1558 1558 1558 1559 1560 1561 1561 1562 1562 1562 1563 1563 1562 1562 1562 1563 1562 1560 1558 1559 1560 1560 1560 1560 1561 1561 1561 1561 1562 1563
1425 1427 1430 1433 1436 1438 1442 1445 1448 1451 1454 1457 1460 1463 1466 1470 1473 1475 1478 1481 1484 1487 1490 1492 1494 1497 1500 1502 1502 1499 1493 1495 1503 1505 1505 1508 1511 1515 1519 1522 1526 1529 1531 1534 1537 1539 1541 1543 1545 1546 1549 1551 1552 1553 1554 1557 1558 1556 1556 1557 1558 1558 1559 1560 1560 1561 1561 1562 1562 1562 1561 1562 1562 1562 1560 1558 1558 1558 1559 1559 1559 1559 1559 1559 1560 1560 1561 1561
1421 1424 1426 1429 1432 1435 1438 1441 1445 1448 1451 1454 1457 1459 1463 1467 1470 1473 1476 1479 1482 1485 1487 1489 1492 1495 1497 1498 1500 1495 1490 1497 1503 1504 1505 1506 1508 1512 1515 1519 1523 1526 1529 1532 1535 1537 1539 1541 1544 1546 1548 1549 1550 1552 1553 1555 1555 1554 1555 1556 1557 1557 1558 1559 1559 1560 1560 1561 1561 1561 1561 1561 1561 1562 1558 1556 1557 1557 1557 1557 1558 1558 1558 1558 1558 1559 1559 1560
1418 1420 1423 1426 1429 1432 1435 1439 1441 1444 1448 1452 1455 1457 1461 1465 1468 1470 1473 1477 1480 1483 1485 1488 1491 1492 1493 1495 1496 1491 1491 1498 1501 1503 1505 1505 1506 1508 1512 1517 1520 1523 1527 1530 1533 1535 1538 1540 1542 1545 1547 1548 1550 1551 1552 1552 1553 1554 1555 1555 1556 1556 1557 1557 1558 1559 1559 1560 1560 1560 1560 1560 1561 1560 1556 1556 1556 1556 1556 1556 1556 1556 1556 1557 1557 1557 1558 1558
1414 1416 1419 1422 1425 1428 1432 1435 1438 1442 1446 1449 1452 1456 1459 1462 1466 1468 1471 1475 1478 1481 1482 1486 1488 1490 1492 1493 1490 1489 1493 1497 1498 1502 1503 1503 1505 1508 1512 1516 1519 1522 1524 1527 1531 1534 1537 1539 1541 1543 1544 1545 1548 1551 1551 1551 1552 1553 1554 1556 1555 1555 1556 1556 1556 1557 1558 1559 1559 1560 1562 1561 1558 1555 1553 1555 1555 1555 1555 1555 1555 1555 1555 1555 1555 1556 1556 1556
1410 1413 1416 1418 1421 1425 1429 1432 1435 1439 1443 1447 1450 1454 1456 1460 1464 1467 1469 1472 1476 1479 1482 1484 1485 1487 1489 1487 1486 1489 1493 1494 1496 1499 1501 1502 1505 1508 1512 1516 1518 1521 1524 1527 1529 1533 1536 1538 1540 1541 1542 1544 1547 1549 1549 1550 1552 1553 1554 1556 1557 1558 1556 1554 1555 1556 1557 1559 1558 1561 1565 1560 1552 1551 1552 1554 1554 1554 1553 1553 1553 1553 1553 1553 1554 1554 1553 1554
1406 1409 1412 1415 1418 1421 1425 1429 1432 1436 1441 1445 1448 1451 1454 1458 1462 1465 1467 1471 1475 1478 1481 1483 1482 1484 1486 1483 1483 1487 1491 1493 1494 1497 1499 1501 1503 1507 1510 1514 1517 1520 1523 1527 1529 1532 1534 1537 1540 1541 1542 1543 1545 1547 1549 1551 1552 1553 1556 1557 1559 1562 1559 1553 1554 1555 1555 1558 1557 1560 1566 1560 1550 1549 1552 1552 1552 1552 1551 1550 1551 1551 1551 1551 1551 1551 1551 1551
1402 1405 1409 1412 1415 1418 1422 1426 1429 1433 1438 1442 1446 1450 1452 1456 1459 1463 1466 1468 1473 1476 1480 1482 1480 1481 1482 1480 1480 1483 1487 1490 1492 1494 1497 1500 1502 1505 1508 1512 1515 1519 1522 1525 1528 1531 1533 1536 1538 1540 1541 1542 1544 1546 1550 1552 1553 1553 1557 1560 1561 1562 1559 1553 1553 1554 1553 1556 1557 1559 1565 1560 1549 1547 1549 1550 1550 1549 1548 1548 1548 1549 1548 1548 1548 1548 1548 1549
1399 1402 1405 1408 1412 1415 1419 1423 1427 1431 1436 1439 1443 1448 1451 1454 1457 1461 1465 1467 1471 1475 1479 1479 1476 1477 1478 1477 1477 1480 1484 1486 1488 1493 1496 1499 1501 1502 1506 1511 1514 1517 1521 1524 1527 1530 1532 1535 1537 1538 1540 1541 1543 1545 1551 1555 1554 1554 1555 1559 1561 1561 1561 1557 1553 1553 1553 1554 1556 1557 1560 1557 1548 1545 1546 1546 1547 1547 1546 1545 1546 1546 1546 1545 1546 1546 1545 1546
1395 1398 1401 1405 1409 1412 1416 1420 1424 1428 1433 1437 1441 1445 1449 1452 1456 1460 1463 1466 1469 1472 1475 1474 1474 1477 1475 1472 1473 1474 1478 1482 1486 1490 1494 1497 1500 1501 1504 1509 1512 1516 1519 1523 1527 1529 1531 1533 1535 1537 1538 1540 1541 1545 1553 1556 1555 1556 1556 1558 1561 1561 1562 1560 1554 1552 1553 1554 1555 1555 1556 1553 1546 1543 1545 1544 1545 1545 1545 1544 1543 1544 1543 1543 1543 1543 1543 1543
1391 1394 1398 1402 1405 1409 1413 1417 1422 1426 1430 1435 1438 1442 1447 1451 1455 1459 1460 1463 1466 1469 1472 1471 1472 1474 1469 1467 1469 1470 1474 1479 1483 1488 1491 1494 1498 1500 1503 1506 1510 1514 1519 1523 1525 1527 1530 1532 1534 1537 1538 1540 1540 1541 1546 1547 1547 1553 1556 1557 1561 1560 1560 1560 1554 1551 1552 1553 1554 1555 1556 1553 1545 1541 1544 1544 1544 1544 1543 1543 1542 1541 1541 1541 1541 1540 1540 1540
1387 1390 1394 1398 1401 1405 1410 1414 1418 1423 1428 1433 1436 1441 1447 1450 1453 1455 1456 1457 1459 1462 1463 1462 1463 1464 1460 1460 1465 1469 1473 1477 1481 1486 1488 1491 1495 1500 1502 1505 1508 1512 1517 1521 1523 1525 1527 1531 1535 1536 1535 1535 1534 1534 1537 1538 1540 1546 1551 1553 1557 1558 1559 1558 1552 1550 1551 1552 1554 1554 1554 1551 1544 1540 1542 1542 1542 1543 1541 1541 1540 1539 1538 1538 1538 1537 1537 1537
1382 1386 1390 1394 1398 1402 1406 1410 1415 1419 1425 1429 1433 1438 1440 1441 1445 1447 1448 1451 1453 1454 1455 1454 1456 1459 1458 1458 1462 1466 1472 1476 1479 1482 1485 1488 1492 1497 1501 1505 1508 1511 1513 1516 1521 1523 1524 1529 1531 1527 1525 1528 1530 1531 1534 1537 1538 1542 1548 1552 1553 1554 1555 1554 1551 1550 1551 1551 1551 1550 1551 1549 1544 1539 1539 1540 1540 1541 1540 1539 1537 1536 1535 1535 1534 1534 1534 1533
1378 1382 1386 1390 1395 1398 1402 1407 1411 1416 1421 1425 1428 1430 1429 1430 1433 1435 1440 1448 1452 1453 1454 1454 1456 1459 1459 1460 1461 1462 1466 1472 1475 1478 1483 1486 1489 1494 1499 1502 1505 1509 1509 1511 1517 1521 1524 1526 1522 1518 1519 1524 1528 1531 1534 1537 1539 1542 1546 1550 1553 1554 1553 1551 1551 1550 1551 1552 1550 1549 1549 1548 1544 1539 1537 1538 1539 1538 1537 1535 1533 1532 1533 1532 1531 1531 1531 1530
1375 1378 1383 1387 1391 1395 1399 1404 1408 1413 1418 1422 1423 1424 1425 1427 1429 1430 1436 1444 1449 1451 1453 1454 1456 1458 1458 1461 1463 1463 1464 1468 1473 1477 1480 1483 1486 1491 1496 1498 1500 1503 1506 1510 1515 1521 1525 1521 1512 1512 1519 1524 1527 1530 1533 1537 1540 1542 1546 1550 1553 1555 1554 1552 1550 1550 1551 1551 1549 1549 1548 1544 1541 1537 1534 1535 1535 1534 1533 1531 1529 1529 1530 1528 1527 1527 1527 1527
1371 1375 1380 1383 1387 1392 1396 1401 1406 1411 1414 1416 1418 1420 1423 1427 1431 1434 1438 1443 1447 1450 1451 1452 1454 1456 1457 1460 1462 1463 1464 1465 1470 1474 1477 1480 1484 1487 1492 1496 1498 1501 1506 1508 1511 1517 1518 1511 1507 1513 1520 1523 1528 1532 1534 1538 1541 1542 1544 1549 1552 1553 1553 1552 1550 1550 1550 1551 1549 1548 1546 1540 1537 1535 1530 1529 1530 1528 1528 1528 1526 1526 1526 1523 1523 1524 1524 1523
1367 1372 1376 1380 1385 1389 1394 1400 1405 1407 1409 1412 1415 1418 1422 1426 1431 1434 1438 1444 1446 1447 1449 1450 1452 1454 1455 1457 1459 1461 1462 1464 1467 1469 1472 1476 1481 1487 1489 1492 1496 1500 1503 1503 1506 1510 1507 1503 1507 1514 1517 1521 1528 1533 1534 1538 1542 1543 1541 1544 1547 1549 1549 1548 1549 1549 1550 1552 1550 1548 1545 1534 1528 1530 1525 1521 1524 1524 1523 1524 1523 1521 1520 1519 1519 1520 1519 1519
1363 1368 1372 1377 1382 1386 1393 1398 1400 1403 1407 1409 1412 1416 1420 1425 1430 1433 1437 1444 1446 1445 1448 1450 1451 1452 1452 1455 1456 1457 1460 1464 1466 1467 1470 1472 1476 1483 1487 1490 1493 1497 1499 1500 1504 1507 1504 1504 1507 1511 1515 1521 1527 1530 1531 1534 1540 1544 1540 1538 1542 1545 1546 1547 1549 1549 1552 1554 1550 1551 1551 1533 1518 1522 1521 1517 1520 1520 1519 1520 1519 1517 1516 1515 1515 1514 1515 1515
1360 1364 1369 1374 1379 1385 1391 1393 1395 1401 1405 1406 1409 1414 1419 1423 1430 1433 1436 1445 1444 1441 1444 1446 1448 1448 1449 1452 1454 1458 1462 1464 1466 1468 1470 1472 1474 1477 1484 1488 1489 1493 1496 1498 1503 1504 1503 1504 1504 1508 1515 1520 1524 1527 1528 1530 1538 1542 1537 1536 1541 1543 1545 1547 1548 1550 1554 1555 1551 1552 1555 1539 1520 1517 1517 1516 1516 1515 1516 1516 1514 1513 1512 1510 1510 1509 1510 1510
1357 1361 1366 1371 1376 1381 1385 1386 1391 1397 1398 1400 1406 1413 1417 1422 1429 1432 1437 1445 1439 1431 1436 1441 1442 1443 1445 1449 1451 1456 1460 1459 1464 1469 1468 1472 1476 1477 1483 1486 1487 1491 1493 1498 1504 1499 1498 1503 1504 1508 1514 1518 1520 1523 1523 1526 1534 1538 1533 1534 1540 1542 1545 1547 1548 1551 1553 1553 1552 1550 1554 1550 1529 1513 1511 1512 1512 1511 1512 1513 1511 1509 1508 1506 1505 1505 1505 1505
1354 1358 1363 1368 1373 1377 1380 1383 1388 1390 1391 1396 1404 1411 1416 1420 1427 1430 1436 1439 1426 1420 1429 1436 1438 1440 1442 1447 1449 1452 1454 1453 1459 1466 1467 1471 1475 1477 1482 1483 1484 1488 1490 1495 1499 1493 1492 1498 1499 1503 1510 1514 1514 1515 1519 1524 1530 1533 1531 1533 1538 1541 1544 1546 1548 1551 1552 1554 1554 1549 1553 1554 1528 1506 1510 1512 1508 1507 1508 1510 1509 1506 1505 1503 1501 1500 1499 1500
1351 1356 1360 1366 1371 1375 1380 1383 1385 1386 1391 1396 1402 1410 1414 1420 1426 1429 1431 1427 1416 1415 1423 1429 1436 1440 1441 1445 1449 1451 1452 1453 1456 1460 1465 1470 1472 1475 1478 1479 1481 1486 1489 1491 1493 1492 1492 1493 1494 1498 1504 1507 1508 1512 1517 1520 1525 1529 1530 1533 1537 1541 1544 1547 1549 1550 1554 1558 1553 1545 1549 1553 1524 1498 1506 1513 1507 1505 1504 1506 1505 1501 1500 1498 1496 1495 1494 1497
1348 1352 1358 1364 1368 1373 1377 1381 1383 1386 1392 1396 1401 1408 1413 1419 1423 1423 1422 1416 1412 1417 1420 1423 1431 1435 1438 1444 1448 1450 1451 1454 1456 1459 1464 1467 1470 1473 1476 1479 1481 1485 1490 1491 1492 1494 1492 1491 1494 1497 1500 1502 1505 1512 1514 1516 1522 1526 1530 1535 1541 1545 1546 1550 1550 1550 1557 1556 1544 1536 1542 1552 1531 1497 1497 1506 1501 1500 1499 1500 1500 1497 1495 1493 1492 1492 1492 1494
1345 1350 1355 1360 1364 1368 1372 1375 1379 1385 1391 1395 1399 1406 1413 1417 1417 1414 1411 1406 1410 1418 1418 1421 1428 1431 1434 1439 1444 1449 1451 1453 1455 1458 1462 1466 1469 1472 1474 1479 1482 1485 1490 1492 1493 1495 1494 1494 1495 1495 1497 1499 1506 1514 1516 1518 1521 1523 1529 1535 1542 1549 1549 1553 1554 1554 1559 1549 1532 1529 1537 1550 1538 1503 1493 1499 1496 1495 1496 1495 1496 1494 1492 1491 1490 1491 1491 1492
1344 1348 1353 1358 1361 1366 1368 1370 1376 1382 1387 1392 1398 1403 1408 1412 1409 1404 1403 1405 1411 1415 1414 1417 1423 1426 1432 1437 1441 1445 1448 1451 1453 1455 1459 1462 1465 1467 1469 1473 1477 1482 1486 1487 1491 1495 1495 1495 1493 1493 1495 1496 1503 1515 1521 1522 1522 1523 1529 1534 1542 1550 1550 1551 1551 1548 1549 1539 1528 1530 1536 1544 1531 1499 1492 1496 1493 1495 1495 1492 1492 1491 1490 1489 1488 1489 1489 1490
1342 1347 1352 1356 1359 1363 1366 1370 1377 1381 1384 1388 1394 1400 1403 1403 1398 1394 1401 1408 1408 1407 1408 1412 1416 1421 1428 1435 1440 1443 1447 1451 1451 1453 1456 1459 1463 1465 1465 1467 1471 1476 1479 1480 1487 1493 1495 1496 1495 1495 1496 1493 1495 1507 1517 1519 1519 1520 1522 1527 1536 1543 1546 1548 1544 1541 1541 1534 1530 1532 1535 1539 1524 1496 1487 1489 1488 1490 1489 1489 1490 1488 1488 1487 1486 1487 1487 1486
1342 1346 1350 1354 1357 1360 1365 1370 1375 1379 1383 1386 1390 1396 1396 1392 1390 1392 1401 1409 1406 1404 1407 1409 1415 1423 1427 1430 1434 1438 1445 1451 1450 1452 1456 1459 1463 1465 1466 1467 1469 1473 1478 1481 1485 1488 1490 1491 1490 1491 1491 1489 1488 1494 1501 1506 1511 1512 1510 1517 1525 1527 1531 1536 1534 1534 1535 1533 1535 1536 1535 1531 1512 1489 1483 1483 1483 1485 1484 1486 1487 1486 1485 1484 1483 1483 1482 1482
1341 1345 1348 1352 1356 1359 1364 1369 1373 1376 1381 1385 1386 1389 1385 1381 1386 1392 1398 1404 1406 1407 1410 1411 1416 1425 1429 1431 1434 1435 1440 1447 1449 1452 1454 1456 1458 1459 1462 1466 1467 1470 1476 1482 1485 1485 1485 1482 1479 1482 1484 1484 1486 1488 1492 1502 1512 1512 1509 1514 1517 1512 1514 1522 1524 1523 1526 1533 1536 1532 1526 1513 1491 1477 1478 1481 1482 1482 1483 1484 1484 1483 1481 1481 1480 1479 1478 1478
1340 1343 1347 1350 1353 1357 1361 1366 1372 1375 1378 1382 1383 1382 1378 1379 1385 1388 1390 1396 1399 1403 1409 1415 1419 1424 1430 1435 1436 1437 1440 1444 1448 1452 1453 1454 1455 1454 1456 1461 1463 1465 1469 1477 1483 1485 1485 1481 1479 1482 1484 1482 1483 1486 1489 1495 1503 1508 1510 1510 1508 1504 1506 1514 1521 1521 1525 1532 1528 1520 1517 1509 1494 1479 1473 1475 1478 1479 1481 1481 1479 1479 1479 1479 1477 1475 1475 1475
1337 1340 1344 1347 1350 1354 1359 1365 1371 1375 1377 1380 1380 1378 1378 1382 1385 1385 1385 1389 1394 1397 1402 1410 1414 1418 1426 1433 1435 1437 1440 1443 1447 1450 1452 1454 1454 1452 1455 1458 1460 1461 1464 1471 1478 1480 1481 1483 1482 1482 1484 1483 1482 1486 1490 1488 1490 1500 1505 1502 1504 1508 1508 1511 1520 1525 1531 1532 1519 1509 1509 1509 1505 1488 1471 1472 1476 1476 1479 1479 1477 1478 1478 1478 1475 1473 1472 1470
1335 1338 1343 1345 1348 1353 1358 1364 1370 1373 1376 1377 1376 1377 1381 1384 1385 1385 1384 1386 1392 1396 1398 1403 1408 1411 1417 1423 1428 1433 1436 1439 1443 1447 1449 1451 1449 1448 1452 1457 1459 1460 1462 1467 1473 1476 1477 1482 1485 1482 1482 1484 1484 1488 1493 1492 1490 1494 1496 1496 1502 1512 1513 1513 1517 1520 1527 1527 1514 1504 1503 1503 1501 1486 1471 1472 1475 1474 1477 1478 1478 1478 1476 1475 1472 1469 1468 1466
1336 1340 1343 1345 1348 1353 1358 1364 1369 1372 1373 1372 1371 1375 1381 1384 1386 1386 1383 1384 1389 1394 1397 1399 1403 1409 1414 1415 1420 1427 1430 1432 1438 1442 1443 1444 1445 1444 1446 1451 1456 1460 1461 1463 1469 1473 1475 1479 1484 1483 1482 1484 1487 1490 1493 1494 1493 1494 1495 1497 1501 1505 1507 1507 1506 1505 1512 1517 1511 1503 1499 1493 1485 1473 1468 1471 1472 1473 1475 1475 1476 1475 1472 1470 1469 1467 1466 1464
1335 1339 1342 1344 1348 1353 1359 1365 1368 1368 1368 1367 1367 1373 1379 1382 1386 1386 1384 1384 1387 1390 1394 1395 1398 1404 1411 1415 1419 1424 1427 1429 1434 1437 1438 1439 1441 1442 1443 1445 1451 1458 1461 1462 1466 1470 1474 1477 1480 1483 1484 1484 1484 1484 1482 1483 1488 1492 1495 1499 1501 1502 1504 1503 1500 1498 1502 1507 1506 1502 1495 1481 1468 1463 1464 1467 1469 1470 1471 1470 1471 1471 1468 1467 1467 1466 1465 1462
1335 1338 1341 1344 1348 1353 1359 1363 1364 1363 1365 1366 1368 1373 1377 1379 1383 1386 1384 1383 1385 1388 1390 1392 1394 1397 1403 1411 1418 1422 1426 1430 1433 1435 1437 1437 1437 1439 1440 1440 1443 1451 1458 1463 1465 1466 1470 1475 1477 1480 1483 1481 1478 1478 1476 1476 1480 1483 1485 1488 1490 1493 1500 1503 1501 1497 1498 1498 1496 1496 1491 1472 1460 1460 1461 1462 1465 1466 1467 1468 1469 1468 1467 1466 1465 1464 1463 1460
1337 1338 1340 1344 1347 1352 1357 1360 1360 1361 1364 1364 1366 1371 1374 1377 1381 1384 1383 1383 1384 1386 1388 1392 1394 1396 1400 1404 1410 1417 1422 1428 1431 1432 1433 1434 1433 1433 1435 1436 1438 1444 1451 1458 1462 1461 1465 1473 1477 1478 1480 1479 1478 1478 1479 1478 1477 1478 1480 1481 1482 1486 1491 1495 1494 1492 1495 1495 1491 1494 1491 1470 1457 1459 1460 1461 1463 1464 1465 1467 1466 1466 1465 1464 1464 1463 1460 1458
1336 1338 1340 1342 1346 1350 1354 1358 1360 1361 1363 1363 1365 1369 1373 1376 1380 1382 1382 1382 1384 1386 1389 1393 1395 1398 1401 1403 1408 1414 1419 1424 1429 1429 1429 1431 1432 1432 1433 1435 1438 1442 1447 1453 1459 1461 1464 1471 1476 1479 1480 1479 1478 1478 1479 1479 1479 1480 1481 1480 1481 1481 1480 1481 1483 1485 1490 1492 1490 1497 1495 1473 1456 1457 1460 1461 1463 1463 1464 1464 1464 1464 1463 1463 1463 1461 1460 1458
1335 1338 1340 1342 1346 1349 1352 1354 1356 1359 1364 1365 1367 1371 1376 1378 1379 1380 1380 1380 1382 1384 1387 1392 1395 1396 1399 1401 1405 1410 1414 1422 1428 1429 1428 1430 1432 1433 1433 1434 1437 1440 1443 1446 1450 1455 1461 1465 1470 1475 1479 1480 1480 1480 1480 1479 1480 1481 1479 1478 1479 1478 1478 1481 1484 1488 1491 1488 1486 1492 1490 1472 1457 1457 1460 1461 1462 1462 1462 1463 1463 1463 1462 1461 1461 1461 1459 1458
1334 1339 1341 1342 1345 1348 1350 1351 1352 1357 1363 1365 1368 1372 1376 1379 1380 1379 1378 1380 1381 1381 1384 1391 1395 1396 1399 1401 1406 1410 1412 1418 1424 1427 1429 1430 1431 1433 1433 1433 1435 1436 1438 1440 1442 1448 1454 1457 1461 1468 1472 1473 1471 1470 1469 1470 1477 1480 1477 1476 1477 1478 1480 1482 1483 1487 1488 1483 1482 1484 1481 1468 1458 1456 1459 1460 1461 1461 1460 1460 1461 1461 1461 1460 1460 1460 1458 1457
1333 1337 1341 1343 1345 1347 1350 1352 1352 1355 1359 1362 1368 1373 1374 1378 1381 1380 1380 1382 1383 1382 1385 1391 1394 1397 1401 1403 1407 1413 1415 1418 1422 1424 1425 1427 1430 1432 1432 1432 1434 1435 1437 1440 1442 1447 1453 1453 1454 1457 1459 1458 1457 1456 1457 1461 1469 1475 1475 1476 1476 1476 1477 1478 1480 1481 1479 1477 1476 1475 1473 1469 1460 1456 1457 1460 1461 1461 1458 1457 1458 1458 1459 1459 1458 1457 1456 1455
1331 1334 1337 1340 1344 1348 1351 1353 1354 1356 1358 1359 1364 1370 1372 1375 1379 1381 1382 1384 1384 1384 1387 1391 1392 1395 1400 1403 1406 1412 1415 1418 1421 1420 1421 1426 1429 1431 1433 1433 1435 1435 1438 1441 1442 1446 1452 1453 1452 1453 1453 1451 1449 1452 1455 1457 1460 1465 1468 1472 1474 1475 1476 1479 1481 1479 1477 1479 1477 1472 1475 1476 1466 1456 1456 1457 1459 1460 1457 1455 1456 1456 1457 1457 1456 1455 1453 1452
1330 1332 1335 1337 1340 1343 1346 1349 1352 1356 1359 1360 1362 1367 1370 1372 1375 1377 1381 1384 1384 1383 1386 1392 1394 1393 1396 1398 1402 1410 1415 1419 1422 1420 1420 1425 1428 1430 1433 1435 1436 1436 1437 1441 1442 1444 1448 1450 1450 1451 1452 1450 1448 1452 1455 1455 1456 1458 1460 1463 1467 1471 1474 1476 1475 1474 1476 1479 1476 1473 1478 1479 1469 1458 1451 1451 1455 1456 1454 1453 1453 1453 1454 1453 1453 1452 1451 1450
1330 1331 1335 1337 1339 1340 1339 1342 1347 1353 1358 1361 1363 1366 1368 1370 1372 1373 1375 1381 1385 1383 1383 1389 1393 1393 1395 1395 1398 1405 1411 1413 1415 1417 1418 1420 1422 1425 1430 1434 1435 1435 1436 1439 1442 1444 1445 1447 1447 1450 1452 1450 1449 1452 1455 1454 1455 1457 1457 1457 1460 1463 1467 1469 1467 1467 1470 1472 1468 1468 1472 1469 1460 1451 1444 1444 1450 1452 1450 1450 1450 1450 1451 1450 1450 1449 1448 1448
1330 1331 1333 1335 1340 1342 1342 1344 1347 1351 1357 1360 1362 1365 1365 1366 1369 1371 1372 1374 1379 1382 1382 1383 1387 1390 1393 1394 1395 1399 1400 1398 1400 1406 1411 1416 1420 1421 1423 1426 1429 1433 1436 1438 1442 1445 1445 1445 1445 1449 1453 1452 1449 1452 1456 1455 1455 1455 1455 1456 1458 1460 1463 1464 1464 1464 1467 1469 1465 1465 1468 1462 1451 1443 1440 1443 1448 1448 1447 1448 1448 1448 1449 1448 1447 1447 1446 1447
1331 1331 1331 1333 1339 1343 1344 1346 1347 1350 1356 1359 1359 1362 1363 1362 1363 1366 1371 1371 1371 1374 1376 1376 1380 1387 1391 1394 1394 1393 1394 1393 1395 1400 1405 1409 1412 1414 1416 1420 1425 1431 1437 1439 1441 1445 1447 1447 1446 1449 1454 1452 1448 1450 1454 1457 1458 1458 1457 1458 1459 1460 1461 1460 1458 1457 1459 1462 1463 1465 1466 1457 1444 1441 1443 1443 1442 1442 1442 1445 1447 1446 1446 1446 1445 1444 1445 1447
1332 1333 1332 1332 1339 1343 1344 1346 1348 1349 1353 1355 1355 1357 1359 1360 1360 1362 1368 1373 1371 1371 1372 1373 1377 1385 1391 1394 1392 1390 1392 1396 1399 1403 1405 1406 1408 1411 1414 1417 1419 1424 1431 1436 1440 1443 1445 1447 1447 1448 1451 1449 1445 1447 1452 1458 1460 1457 1455 1456 1456 1455 1455 1454 1452 1451 1450 1453 1457 1458 1456 1448 1441 1443 1445 1439 1432 1434 1439 1443 1445 1443 1442 1443 1443 1442 1443 1445